"startDT [UTC]","vpos","CH4 [ppm]","stdev(CH4) [ppm]","CO2 [ppm]","stdev(CO2) [ppm]","H2O_reported [%]","stdev(H2O_reported)","CavityPressure [torr]","CavityTemp [C]","OutletValve","CH4_dry [ppm]","CO2_dry [ppm]","DasTemp [C]","EtalonTemp [C]","WarmBoxTemp [C]","MPVPosition","T_ECpre [C]","T_EC1 [C]","T_EC2 [C]","p_inlet [hPa]","p_in [hPa]","p_out [hPa]","T_inlet [C]","RH_inlet [%]","dwpt_inlet [C]","T_vent [C]","RH_vent [%]","dwpt_vent [C]","flow_vent [l min-1]","flow_inlet [l min-1]","dwpt_sample [C]","T_room [C]"
2013-09-09 00:00:00,0.0,1.91156,0.00040,384.330,0.058,0.8254,0.0029,140.001,45.000,31638.74587,1.92747,388.242,32.248,45.056,45.000,0.00,0.12,-272.57,-272.63,-18,569,-2,19.6,27.5,0.3,19.6,28.7,0.9,5.73,2.52,1.0,25.4
2013-09-09 00:01:00,0.0,1.91097,0.00056,384.255,0.040,0.8287,0.0021,140.000,45.000,31639.03747,1.92706,388.191,32.250,45.056,45.000,0.00,0.12,-272.57,-272.64,-17,569,-2,19.6,27.6,0.4,19.6,28.8,1.0,5.73,2.54,1.0,25.4
2013-09-09 00:02:00,0.0,1.91110,0.00043,384.366,0.062,0.8281,0.0022,140.002,45.000,31641.07659,1.92707,388.285,32.250,45.056,45.000,0.00,0.12,-272.57,-272.63,-18,569,-2,19.6,27.6,0.4,19.6,28.8,1.0,5.73,2.56,1.0,25.3
2013-09-09 00:03:00,0.0,1.91005,0.00041,384.251,0.043,0.8304,0.0023,140.002,45.000,31642.37752,1.92624,388.203,32.250,45.056,45.000,0.00,0.12,-272.57,-272.63,-18,569,-2,19.6,27.7,0.5,19.7,28.9,1.1,5.73,2.57,1.0,25.3
2013-09-09 00:04:00,0.0,1.90978,0.00028,384.296,0.045,0.8259,0.0019,140.001,45.000,31640.79328,1.92561,388.208,32.248,45.055,45.000,0.00,0.12,-272.57,-272.64,-18,569,-2,19.6,27.5,0.4,19.6,28.7,1.0,5.73,2.57,1.0,25.3
2013-09-09 00:05:00,0.0,1.91036,0.00031,384.270,0.050,0.8252,0.0022,140.004,45.000,31640.61778,1.92626,388.192,32.242,45.055,45.000,0.00,0.12,-272.57,-272.64,-18,569,-2,19.6,27.5,0.4,19.6,28.7,1.0,5.73,2.55,1.0,25.3
2013-09-09 00:06:00,0.0,1.91017,0.00038,384.227,0.015,0.8250,0.0032,140.003,45.000,31641.29235,1.92611,388.146,32.240,45.055,45.000,0.00,0.12,-272.57,-272.63,-18,569,-2,19.7,27.4,0.4,19.6,28.7,0.9,5.73,2.52,1.0,25.3
2013-09-09 00:07:00,0.0,1.90996,0.00013,384.220,0.032,0.8207,0.0019,140.000,45.000,31642.99294,1.92586,388.108,32.249,45.055,45.000,0.00,0.12,-272.57,-272.64,-18,569,-2,19.7,27.3,0.3,19.7,28.5,0.9,5.73,2.51,1.0,25.3
2013-09-09 00:08:00,0.0,1.91006,0.00046,384.206,0.035,0.8217,0.0019,140.002,45.000,31642.36262,1.92589,388.107,32.247,45.055,45.000,0.00,0.12,-272.57,-272.64,-18,569,-2,19.7,27.3,0.3,19.7,28.5,0.9,5.73,2.52,1.0,25.4
2013-09-09 00:09:00,0.0,1.91064,0.00037,384.239,0.034,0.8186,0.0020,140.002,45.000,31642.42324,1.92633,388.115,32.244,45.055,45.000,0.00,0.12,-272.57,-272.64,-18,569,-2,19.7,27.2,0.3,19.7,28.5,0.9,5.73,2.55,1.0,25.3
2013-09-09 00:10:00,0.0,1.91029,0.00068,384.233,0.041,0.8237,0.0013,140.007,45.000,31645.52882,1.92631,388.143,32.247,45.055,45.000,0.00,0.12,-272.57,-272.64,-17,569,-2,19.7,27.4,0.3,19.6,28.6,0.9,5.73,2.56,1.0,25.3
2013-09-09 00:11:00,0.0,1.91008,0.00062,384.206,0.030,0.8210,0.0020,139.998,45.000,31643.89284,1.92594,388.100,32.246,45.056,45.000,0.00,0.12,-272.57,-272.64,-18,569,-2,19.6,27.4,0.3,19.7,28.6,0.9,5.73,2.57,1.0,25.3
2013-09-09 00:12:00,0.0,1.90998,0.00069,384.175,0.028,0.8265,0.0014,140.002,45.000,31644.85477,1.92593,388.096,32.250,45.056,45.000,0.00,0.12,-272.57,-272.64,-17,569,-2,19.6,27.6,0.4,19.6,28.8,1.0,5.73,2.56,1.0,25.3
2013-09-09 00:13:00,0.0,1.90885,0.00040,384.163,0.025,0.8256,0.0032,140.000,45.000,31645.63895,1.92484,388.078,32.250,45.056,45.000,0.00,0.12,-272.57,-272.63,-17,569,-2,19.6,27.5,0.4,19.6,28.7,1.0,5.73,2.53,1.0,25.3
2013-09-09 00:14:00,0.0,1.90972,0.00058,384.221,0.034,0.8154,0.0029,140.004,45.000,31644.94341,1.92533,388.088,32.262,45.056,45.000,0.00,0.12,-272.57,-272.64,-17,569,-2,19.6,27.2,0.2,19.6,28.4,0.8,5.73,2.51,1.0,25.3
2013-09-09 00:15:00,0.0,1.90941,0.00042,384.153,0.027,0.8228,0.0023,139.999,45.000,31644.65111,1.92539,388.060,32.274,45.056,45.000,0.00,0.12,-272.57,-272.64,-17,569,-2,19.6,27.4,0.3,19.6,28.6,0.9,5.73,2.51,1.0,25.3
2013-09-09 00:16:00,0.0,1.90876,0.00014,384.087,0.025,0.8295,0.0026,140.003,45.000,31644.54631,1.92476,388.019,32.256,45.055,45.000,0.00,0.12,-272.57,-272.63,-17,569,-2,19.6,27.6,0.4,19.6,28.8,1.0,5.73,2.53,1.0,25.3
2013-09-09 00:17:00,0.0,1.90852,0.00020,384.073,0.040,0.8317,0.0016,140.001,45.000,31642.40771,1.92458,388.019,32.252,45.056,45.000,0.00,0.12,-272.57,-272.63,-18,569,-2,19.6,27.7,0.5,19.6,29.0,1.1,5.73,2.55,1.0,25.4
2013-09-09 00:18:00,0.0,1.90866,0.00022,384.142,0.033,0.8276,0.0027,140.000,45.000,31643.51599,1.92465,388.063,32.267,45.056,45.000,0.00,0.12,-272.57,-272.64,-18,569,-2,19.6,27.5,0.4,19.6,28.8,1.0,5.73,2.57,1.0,25.4
2013-09-09 00:19:00,0.0,1.90917,0.00068,384.220,0.029,0.8115,0.0035,139.999,45.000,31642.34448,1.92464,388.069,32.252,45.056,45.000,0.00,0.12,-272.57,-272.64,-17,569,-2,19.6,27.0,0.1,19.6,28.2,0.7,5.73,2.57,1.0,25.4
2013-09-09 00:20:00,0.0,1.90932,0.00059,384.245,0.036,0.8064,0.0034,140.007,45.000,31646.55111,1.92486,388.067,32.254,45.056,45.000,0.00,0.12,-272.57,-272.64,-18,569,-2,19.7,26.8,0.0,19.7,28.0,0.6,5.73,2.55,1.0,25.4
2013-09-09 00:21:00,0.0,1.90915,0.00049,384.214,0.023,0.8054,0.0030,139.997,45.000,31645.13504,1.92479,388.034,32.252,45.056,45.000,0.00,0.12,-272.57,-272.64,-18,569,-2,19.7,26.7,-0.0,19.6,28.0,0.6,5.73,2.53,1.0,25.3
2013-09-09 00:22:00,0.0,1.90963,0.00086,384.218,0.036,0.8055,0.0019,140.003,45.000,31646.17189,1.92519,388.039,32.257,45.056,45.000,0.00,0.12,-272.57,-272.64,-17,569,-2,19.7,26.8,0.0,19.6,28.0,0.6,5.73,2.51,1.0,25.3
2013-09-09 00:23:00,0.0,1.91014,0.00059,384.216,0.026,0.8051,0.0018,140.000,45.000,31646.27465,1.92545,388.026,32.250,45.056,45.000,0.00,0.12,-272.57,-272.64,-17,569,-2,19.6,26.8,0.0,19.6,28.1,0.7,5.73,2.51,1.0,25.3
2013-09-09 00:24:00,0.0,1.91049,0.00039,384.150,0.033,0.8087,0.0033,140.003,45.000,31645.67556,1.92609,387.987,32.258,45.056,45.000,0.00,0.12,-272.57,-272.64,-17,569,-2,19.6,26.9,0.1,19.6,28.1,0.7,5.73,2.54,1.0,25.4
2013-09-09 00:25:00,0.0,1.91023,0.00062,384.200,0.041,0.8165,0.0015,140.002,45.000,31644.36001,1.92590,388.061,32.255,45.056,45.000,0.00,0.12,-272.57,-272.64,-17,569,-2,19.6,27.1,0.2,19.6,28.3,0.8,5.73,2.56,1.0,25.4
2013-09-09 00:26:00,0.0,1.91052,0.00042,384.169,0.057,0.8151,0.0011,140.000,45.000,31644.53934,1.92627,388.046,32.250,45.055,45.000,0.00,0.12,-272.57,-272.64,-17,569,-2,19.6,27.1,0.2,19.6,28.3,0.8,5.73,2.57,1.0,25.3
2013-09-09 00:27:00,0.0,1.90979,0.00074,384.125,0.041,0.8182,0.0030,139.998,45.000,31645.03512,1.92568,387.997,32.250,45.055,45.000,0.00,0.12,-272.57,-272.64,-17,569,-2,19.7,27.2,0.3,19.6,28.4,0.8,5.73,2.57,1.0,25.3
2013-09-09 00:28:00,0.0,1.90954,0.00043,384.202,0.036,0.8120,0.0027,140.006,45.000,31645.71816,1.92521,388.050,32.250,45.056,45.000,0.00,0.12,-272.57,-272.64,-17,569,-2,19.6,27.1,0.2,19.6,28.3,0.8,5.73,2.55,1.0,25.3
2013-09-09 00:29:00,0.0,1.90962,0.00009,384.231,0.015,0.8058,0.0019,140.002,45.000,31644.57436,1.92516,388.053,32.246,45.056,45.000,0.00,0.12,-272.57,-272.64,-17,569,-2,19.7,26.8,0.0,19.7,28.0,0.6,5.73,2.53,1.0,25.4
2013-09-09 00:30:00,0.0,1.91023,0.00060,384.256,0.039,0.8097,0.0020,140.006,45.000,31645.26568,1.92581,388.089,32.250,45.055,45.000,0.00,0.12,-272.57,-272.63,-17,569,-2,19.6,26.8,0.0,19.7,28.0,0.7,5.73,2.51,1.0,25.3
2013-09-09 00:31:00,0.0,1.91015,0.00044,384.225,0.016,0.8114,0.0020,140.003,45.000,31644.99872,1.92569,388.074,32.248,45.055,45.000,0.00,0.12,-272.57,-272.64,-17,569,-2,19.7,26.9,0.1,19.7,28.1,0.7,5.73,2.51,1.0,25.3
2013-09-09 00:32:00,0.0,1.90936,0.00077,384.181,0.051,0.8172,0.0029,139.996,45.000,31643.76800,1.92520,388.062,32.248,45.056,45.000,0.00,0.12,-272.57,-272.64,-18,569,-2,19.7,27.1,0.2,19.7,28.3,0.8,5.73,2.53,1.0,25.3
2013-09-09 00:33:00,0.0,1.90955,0.00065,384.216,0.030,0.8090,0.0031,140.002,45.000,31647.61618,1.92528,388.052,32.250,45.056,45.000,0.00,0.12,-272.57,-272.63,-18,569,-2,19.7,26.9,0.1,19.6,28.1,0.7,5.73,2.56,1.0,25.3
2013-09-09 00:34:00,0.0,1.90967,0.00068,384.281,0.076,0.8068,0.0021,140.000,45.000,31648.12363,1.92524,388.095,32.250,45.056,45.000,0.00,0.12,-272.57,-272.63,-18,569,-2,19.6,26.8,0.0,19.6,28.0,0.6,5.73,2.58,1.0,25.3
2013-09-09 00:35:00,0.0,1.90809,0.00057,384.390,0.031,0.8156,0.0032,140.002,45.000,31648.34726,1.92383,388.251,32.252,45.056,45.000,0.00,0.12,-272.57,-272.64,-18,569,-2,19.7,27.1,0.2,19.6,28.3,0.8,5.73,2.57,1.0,25.3
2013-09-09 00:36:00,0.0,1.90813,0.00056,384.305,0.070,0.8195,0.0024,140.002,45.000,31646.03961,1.92405,388.200,32.252,45.055,45.000,0.00,0.12,-272.57,-272.64,-18,569,-2,19.6,27.3,0.3,19.6,28.5,0.9,5.73,2.55,1.0,25.4
2013-09-09 00:37:00,0.0,1.90751,0.00029,384.208,0.049,0.8200,0.0035,140.002,45.000,31645.53942,1.92329,388.106,32.253,45.056,45.000,0.00,0.12,-272.57,-272.64,-18,569,-2,19.6,27.3,0.3,19.6,28.5,0.9,5.73,2.52,1.0,25.4
2013-09-09 00:38:00,0.0,1.90809,0.00049,384.171,0.016,0.8139,0.0020,140.006,45.000,31647.27196,1.92378,388.031,32.254,45.056,45.000,0.00,0.12,-272.58,-272.64,-17,569,-2,19.6,27.1,0.2,19.6,28.3,0.8,5.73,2.51,1.0,25.3
2013-09-09 00:39:00,0.0,1.90755,0.00054,384.245,0.040,0.8110,0.0021,139.999,45.000,31646.90121,1.92316,388.084,32.250,45.056,45.000,0.00,0.12,-272.57,-272.64,-17,569,-2,19.7,27.0,0.1,19.6,28.3,0.8,5.73,2.52,1.0,25.4
2013-09-09 00:40:00,0.0,1.90775,0.00052,384.242,0.057,0.8152,0.0015,139.997,45.000,31649.62639,1.92351,388.110,32.250,45.056,45.000,0.00,0.12,-272.57,-272.63,-17,569,-2,19.7,27.1,0.2,19.6,28.3,0.8,5.73,2.54,1.0,25.3
2013-09-09 00:41:00,0.0,1.90739,0.00025,384.166,0.028,0.8172,0.0017,140.004,45.000,31652.11733,1.92316,388.042,32.254,45.056,45.000,0.00,0.12,-272.57,-272.64,-17,569,-2,19.6,27.1,0.2,19.6,28.4,0.8,5.73,2.57,1.0,25.3
2013-09-09 00:42:00,0.0,1.90787,0.00072,384.289,0.089,0.8141,0.0025,140.001,45.000,31650.13031,1.92344,388.137,32.252,45.056,45.000,0.00,0.12,-272.58,-272.64,-17,569,-2,19.7,27.0,0.2,19.7,28.3,0.8,5.73,2.58,1.0,25.4
2013-09-09 00:43:00,0.0,1.90755,0.00066,384.190,0.055,0.8191,0.0029,140.007,45.000,31649.34819,1.92329,388.082,32.250,45.056,45.000,0.00,0.12,-272.57,-272.64,-17,569,-2,19.7,27.2,0.3,19.6,28.5,0.8,5.73,2.57,1.0,25.4
2013-09-09 00:44:00,0.0,1.90794,0.00061,384.210,0.054,0.8203,0.0010,140.001,45.000,31646.98520,1.92377,388.101,32.252,45.056,45.000,0.00,0.12,-272.57,-272.64,-18,569,-2,19.7,27.2,0.3,19.7,28.5,0.9,5.73,2.55,1.0,25.3
2013-09-09 00:45:00,0.0,1.90722,0.00029,384.152,0.035,0.8189,0.0015,139.998,45.000,31647.68382,1.92308,388.039,32.254,45.056,45.000,0.00,0.12,-272.57,-272.64,-17,569,-2,19.7,27.3,0.3,19.7,28.5,0.9,5.73,2.52,1.0,25.4
2013-09-09 00:46:00,0.0,1.90736,0.00061,384.174,0.045,0.8204,0.0017,139.994,45.000,31649.45886,1.92315,388.056,32.250,45.055,45.000,0.00,0.12,-272.57,-272.64,-18,569,-2,19.7,27.3,0.3,19.7,28.5,0.9,5.73,2.51,1.0,25.4
2013-09-09 00:47:00,0.0,1.90836,0.00066,384.146,0.047,0.8241,0.0025,139.999,45.000,31647.81765,1.92410,388.060,32.250,45.055,45.000,0.00,0.12,-272.57,-272.64,-18,569,-2,19.7,27.4,0.4,19.7,28.6,1.0,5.73,2.52,1.0,25.4
2013-09-09 00:48:00,0.0,1.90826,0.00040,384.106,0.022,0.8287,0.0011,139.999,45.000,31648.28471,1.92432,388.034,32.250,45.055,45.000,0.00,0.12,-272.57,-272.64,-18,569,-2,19.7,27.6,0.5,19.7,28.8,1.1,5.73,2.53,1.0,25.4
2013-09-09 00:49:00,0.0,1.90760,0.00055,384.024,0.021,0.8338,0.0022,139.999,45.000,31648.97587,1.92372,387.981,32.250,45.056,45.000,0.00,0.12,-272.57,-272.64,-18,569,-2,19.7,27.7,0.5,19.7,29.0,1.1,5.73,2.55,1.0,25.3
2013-09-09 00:50:00,0.0,1.90749,0.00051,384.062,0.018,0.8311,0.0027,139.998,45.000,31646.23750,1.92355,388.004,32.250,45.055,45.000,0.00,0.12,-272.57,-272.64,-18,569,-2,19.7,27.7,0.5,19.7,29.0,1.1,5.73,2.56,1.0,25.4
2013-09-09 00:51:00,0.0,1.90781,0.00037,384.086,0.041,0.8253,0.0017,140.002,45.000,31646.72836,1.92362,387.997,32.250,45.055,45.000,0.00,0.12,-272.57,-272.63,-18,569,-2,19.7,27.5,0.4,19.6,28.7,1.0,5.73,2.57,1.0,25.4
2013-09-09 00:52:00,0.0,1.90782,0.00051,384.061,0.016,0.8260,0.0020,140.001,45.000,31648.35428,1.92372,387.981,32.250,45.055,45.000,0.00,0.12,-272.58,-272.64,-18,569,-2,19.7,27.5,0.4,19.7,28.8,1.0,5.73,2.56,1.0,25.4
2013-09-09 00:53:00,0.0,1.90828,0.00023,384.084,0.031,0.8296,0.0030,140.000,45.000,31648.94023,1.92424,388.016,32.250,45.055,45.000,0.00,0.12,-272.57,-272.64,-18,569,-2,19.7,27.6,0.5,19.7,28.8,1.1,5.73,2.55,1.0,25.3
2013-09-09 00:54:00,0.0,1.90882,0.00058,384.090,0.032,0.8329,0.0025,140.006,45.000,31651.98363,1.92496,388.044,32.250,45.056,45.000,0.00,0.12,-272.57,-272.63,-18,569,-2,19.7,27.7,0.5,19.7,29.0,1.1,5.73,2.53,1.0,25.3
2013-09-09 00:55:00,0.0,1.90719,0.00030,384.045,0.035,0.8363,0.0030,140.005,45.000,31649.78703,1.92341,388.008,32.250,45.055,45.000,0.00,0.12,-272.57,-272.64,-18,569,-2,19.7,27.8,0.6,19.7,29.1,1.2,5.73,2.51,1.0,25.3
2013-09-09 00:56:00,0.0,1.90718,0.00038,384.073,0.026,0.8310,0.0025,140.000,45.000,31650.68161,1.92319,388.017,32.250,45.055,45.000,0.00,0.12,-272.57,-272.64,-18,569,-2,19.7,27.6,0.5,19.7,28.9,1.1,5.73,2.52,1.0,25.3
2013-09-09 00:57:00,0.0,1.90768,0.00057,384.080,0.026,0.8285,0.0026,139.996,45.000,31647.21828,1.92351,388.005,32.250,45.055,45.000,0.00,0.12,-272.57,-272.63,-17,569,-2,19.7,27.6,0.5,19.7,28.8,1.1,5.73,2.53,1.0,25.3
2013-09-09 00:58:00,0.0,1.90757,0.00031,384.057,0.030,0.8326,0.0023,140.003,45.000,31648.87296,1.92372,388.008,32.253,45.055,45.000,0.00,0.12,-272.57,-272.64,-18,569,-2,19.7,27.7,0.5,19.7,28.9,1.1,5.73,2.54,1.0,25.3
2013-09-09 00:59:00,0.0,1.90784,0.00043,384.009,0.028,0.8374,0.0024,140.003,45.000,31648.68127,1.92390,387.983,32.250,45.055,45.000,0.00,0.12,-272.57,-272.64,-18,569,-2,19.7,27.8,0.6,19.7,29.1,1.2,5.73,2.56,1.0,25.3
2013-09-09 01:00:00,0.0,1.90746,0.00056,383.969,0.040,0.8413,0.0033,140.002,45.000,31647.81375,1.92381,387.960,32.244,45.055,45.000,0.00,0.12,-272.57,-272.63,-18,569,-2,19.7,27.9,0.7,19.7,29.2,1.2,5.73,2.56,1.0,25.3
2013-09-09 01:01:00,0.0,1.90679,0.00059,383.927,0.016,0.8427,0.0016,140.006,45.000,31648.91553,1.92307,387.922,32.238,45.056,45.000,0.00,0.12,-272.57,-272.64,-18,569,-2,19.7,28.0,0.7,19.7,29.3,1.3,5.73,2.56,1.0,25.4
2013-09-09 01:02:00,0.0,1.90660,0.00030,383.931,0.023,0.8389,0.0028,140.000,45.000,31650.78315,1.92279,387.910,32.240,45.055,45.000,0.00,0.12,-272.57,-272.64,-18,569,-2,19.7,27.9,0.6,19.7,29.1,1.2,5.73,2.56,1.0,25.3
2013-09-09 01:03:00,0.0,1.90622,0.00033,383.951,0.021,0.8314,0.0027,140.001,45.000,31650.44421,1.92230,387.896,32.241,45.055,45.000,0.00,0.12,-272.57,-272.64,-18,569,-2,19.7,27.6,0.5,19.7,28.9,1.1,5.73,2.55,1.0,25.3
2013-09-09 01:04:00,0.0,1.90616,0.00047,383.947,0.025,0.8277,0.0014,140.002,45.000,31649.60378,1.92212,387.873,32.217,45.056,45.000,0.00,0.12,-272.57,-272.63,-18,569,-2,19.7,27.5,0.4,19.7,28.7,1.0,5.73,2.53,1.0,25.3
2013-09-09 01:05:00,0.0,1.90586,0.00033,383.970,0.042,0.8177,0.0055,140.002,45.000,31647.45719,1.92165,387.847,32.213,45.056,45.000,0.00,0.12,-272.57,-272.64,-18,569,-2,19.7,27.2,0.3,19.7,28.4,0.9,5.73,2.52,1.0,25.3
2013-09-09 01:06:00,0.0,1.90572,0.00046,383.991,0.021,0.8106,0.0024,140.003,45.000,31648.37712,1.92137,387.832,32.219,45.056,45.000,0.00,0.12,-272.57,-272.64,-18,569,-2,19.7,26.9,0.1,19.7,28.1,0.7,5.73,2.52,1.0,25.3
2013-09-09 01:07:00,0.0,1.90518,0.00064,384.027,0.021,0.8038,0.0038,140.001,45.000,31645.80603,1.92075,387.837,32.195,45.056,45.000,0.00,0.12,-272.57,-272.63,-18,569,-2,19.7,26.7,0.0,19.7,27.9,0.6,5.73,2.52,1.0,25.3
2013-09-09 01:08:00,0.0,1.90510,0.00051,384.092,0.031,0.7919,0.0030,140.000,45.000,31643.23762,1.92016,387.841,32.199,45.056,45.000,0.00,0.12,-272.58,-272.63,-18,569,-2,19.7,26.2,-0.2,19.7,27.5,0.4,5.73,2.54,1.0,25.3
2013-09-09 01:09:00,0.0,1.90615,0.00040,384.075,0.037,0.7902,0.0021,140.001,45.000,31645.70671,1.92132,387.822,32.196,45.056,45.000,0.00,0.12,-272.57,-272.64,-18,569,-2,19.7,26.1,-0.3,19.7,27.3,0.3,5.73,2.56,1.0,25.3
2013-09-09 01:10:00,0.0,1.90522,0.00052,384.065,0.051,0.7962,0.0015,139.998,45.000,31646.98062,1.92069,387.835,32.203,45.056,45.000,0.00,0.12,-272.57,-272.63,-18,569,-2,19.7,26.4,-0.2,19.7,27.5,0.5,5.73,2.57,1.0,25.3
2013-09-09 01:11:00,0.0,1.90486,0.00039,384.046,0.034,0.7957,0.0013,140.002,45.000,31649.12659,1.92017,387.816,32.208,45.056,45.000,0.00,0.12,-272.57,-272.64,-18,569,-2,19.7,26.4,-0.1,19.7,27.6,0.5,5.73,2.57,1.0,25.3
2013-09-09 01:12:00,0.0,1.90460,0.00047,384.049,0.029,0.7881,0.0023,140.002,45.000,31648.28665,1.91977,387.781,32.200,45.056,45.000,0.00,0.12,-272.58,-272.64,-18,569,-2,19.7,26.1,-0.3,19.7,27.3,0.3,5.73,2.56,1.0,25.3
2013-09-09 01:13:00,0.0,1.90464,0.00052,384.094,0.012,0.7839,0.0013,140.004,45.000,31650.25839,1.91955,387.804,32.190,45.055,45.000,0.00,0.12,-272.57,-272.64,-18,569,-2,19.7,25.9,-0.4,19.7,27.1,0.2,5.73,2.54,1.0,25.3
2013-09-09 01:14:00,0.0,1.90498,0.00041,384.044,0.037,0.7901,0.0025,140.006,45.000,31649.64597,1.92025,387.786,32.189,45.056,45.000,0.00,0.12,-272.57,-272.64,-18,569,-2,19.7,26.2,-0.3,19.7,27.3,0.3,5.73,2.53,1.0,25.3
2013-09-09 01:15:00,0.0,1.90439,0.00024,383.987,0.042,0.8002,0.0031,140.005,45.000,31651.55882,1.91982,387.775,32.199,45.055,45.000,0.00,0.12,-272.57,-272.64,-18,569,-2,19.7,26.5,-0.1,19.7,27.7,0.5,5.73,2.52,1.0,25.3
2013-09-09 01:16:00,0.0,1.90414,0.00022,383.992,0.028,0.8022,0.0027,140.004,45.000,31651.47622,1.91958,387.790,32.214,45.055,45.000,0.00,0.12,-272.57,-272.64,-18,569,-2,19.7,26.6,-0.0,19.7,27.8,0.6,5.73,2.52,1.0,25.3
2013-09-09 01:17:00,0.0,1.90491,0.00067,384.005,0.025,0.8031,0.0017,139.998,45.000,31651.27503,1.92018,387.812,32.218,45.055,45.000,0.00,0.12,-272.57,-272.64,-18,569,-2,19.7,26.7,-0.0,19.7,27.9,0.6,5.73,2.54,1.0,25.3
2013-09-09 01:18:00,0.0,1.90402,0.00057,383.947,0.025,0.8069,0.0013,140.008,45.000,31655.76561,1.91974,387.767,32.235,45.055,45.000,0.00,0.12,-272.57,-272.64,-18,569,-2,19.6,26.8,0.0,19.7,28.0,0.7,5.73,2.55,1.0,25.3
2013-09-09 01:19:00,0.0,1.90401,0.00055,383.928,0.025,0.8021,0.0039,140.005,45.000,31657.05603,1.91923,387.732,32.245,45.055,45.000,0.00,0.12,-272.57,-272.64,-18,569,-2,19.6,26.7,-0.0,19.7,27.9,0.6,5.73,2.57,1.0,25.3
2013-09-09 01:20:00,0.0,1.90398,0.00039,383.937,0.015,0.8011,0.0030,140.001,45.000,31655.65336,1.91951,387.729,32.250,45.055,45.000,0.00,0.12,-272.57,-272.64,-18,569,-2,19.6,26.6,-0.1,19.6,27.8,0.5,5.73,2.57,1.0,25.3
2013-09-09 01:21:00,0.0,1.90499,0.00064,383.999,0.023,0.7972,0.0027,140.000,45.000,31653.96452,1.92017,387.772,32.250,45.055,45.000,0.00,0.12,-272.57,-272.64,-18,569,-2,19.6,26.6,-0.1,19.6,27.7,0.5,5.73,2.55,1.0,25.3
2013-09-09 01:22:00,0.0,1.90372,0.00040,383.961,0.013,0.8062,0.0033,140.000,45.000,31654.09512,1.91941,387.781,32.250,45.055,45.000,0.00,0.12,-272.57,-272.63,-18,569,-2,19.6,26.8,0.0,19.6,28.0,0.6,5.73,2.53,1.0,25.3
2013-09-09 01:23:00,0.0,1.90413,0.00039,384.016,0.027,0.8018,0.0015,140.005,45.000,31654.19032,1.91948,387.809,32.250,45.055,45.000,0.00,0.12,-272.57,-272.63,-18,569,-2,19.6,26.7,-0.1,19.6,27.9,0.6,5.73,2.52,1.0,25.3
2013-09-09 01:24:00,0.0,1.90444,0.00033,383.994,0.026,0.8018,0.0020,140.001,45.000,31655.05708,1.91982,387.795,32.250,45.056,45.000,0.00,0.12,-272.57,-272.64,-18,569,-2,19.6,26.6,-0.1,19.6,27.8,0.5,5.73,2.52,1.0,25.4
2013-09-09 01:25:00,0.0,1.90415,0.00055,383.939,0.031,0.8029,0.0023,139.996,45.000,31654.87736,1.91959,387.745,32.250,45.055,45.000,0.00,0.12,-272.57,-272.64,-18,569,-2,19.6,26.7,-0.0,19.6,27.9,0.6,5.73,2.53,1.0,25.3
2013-09-09 01:26:00,0.0,1.90411,0.00057,383.946,0.024,0.8091,0.0021,140.002,45.000,31654.54698,1.91965,387.776,32.250,45.056,45.000,0.00,0.12,-272.57,-272.64,-18,569,-2,19.6,26.9,0.1,19.6,28.1,0.7,5.73,2.54,1.0,25.4
2013-09-09 01:27:00,0.0,1.90407,0.00031,383.962,0.022,0.8023,0.0031,140.002,45.000,31654.63900,1.91947,387.763,32.250,45.056,45.000,0.00,0.12,-272.57,-272.63,-18,569,-2,19.6,26.8,-0.0,19.6,28.0,0.6,5.73,2.56,1.0,25.4
2013-09-09 01:28:00,0.0,1.90477,0.00054,383.925,0.014,0.8069,0.0031,140.000,45.000,31653.27884,1.92022,387.744,32.250,45.056,45.000,0.00,0.12,-272.57,-272.64,-18,569,-2,19.6,26.9,0.1,19.6,28.1,0.7,5.73,2.57,1.0,25.4
2013-09-09 01:29:00,0.0,1.90464,0.00051,383.911,0.009,0.8113,0.0017,140.000,45.000,31651.48946,1.92028,387.756,32.250,45.056,45.000,0.00,0.12,-272.57,-272.64,-18,569,-2,19.7,27.0,0.1,19.7,28.2,0.7,5.73,2.57,1.0,25.4
2013-09-09 01:30:00,0.0,1.90437,0.00033,383.878,0.065,0.8131,0.0010,140.003,45.000,31653.51631,1.92006,387.735,32.250,45.056,45.000,0.00,0.12,-272.57,-272.64,-18,569,-2,19.7,27.0,0.1,19.7,28.2,0.8,5.73,2.56,1.0,25.4
2013-09-09 01:31:00,0.0,1.90398,0.00059,383.837,0.020,0.8145,0.0015,140.003,45.000,31654.49031,1.91969,387.693,32.248,45.056,45.000,0.00,0.12,-272.57,-272.64,-18,569,-2,19.7,27.1,0.2,19.6,28.3,0.8,5.73,2.54,1.0,25.4
2013-09-09 01:32:00,0.0,1.90414,0.00030,383.859,0.048,0.8116,0.0018,140.003,45.000,31654.87206,1.91966,387.701,32.250,45.056,45.000,0.00,0.12,-272.57,-272.64,-18,569,-2,19.7,27.0,0.1,19.7,28.2,0.7,5.73,2.52,1.0,25.3
2013-09-09 01:33:00,0.0,1.90407,0.00035,383.890,0.015,0.8075,0.0014,140.005,45.000,31656.53413,1.91970,387.716,32.250,45.056,45.000,0.00,0.12,-272.57,-272.64,-18,569,-2,19.7,26.9,0.1,19.7,28.1,0.7,5.73,2.51,1.0,25.3
2013-09-09 01:34:00,0.0,1.90400,0.00034,383.920,0.021,0.8031,0.0025,140.005,45.000,31656.03433,1.91936,387.725,32.250,45.056,45.000,0.00,0.12,-272.57,-272.63,-18,569,-2,19.7,26.7,-0.0,19.7,27.9,0.6,5.73,2.53,1.0,25.3
2013-09-09 01:35:00,0.0,1.90393,0.00042,383.942,0.035,0.8026,0.0026,140.001,45.000,31655.27848,1.91948,387.741,32.250,45.055,45.000,0.00,0.12,-272.58,-272.64,-18,569,-2,19.6,26.7,-0.1,19.7,27.9,0.6,5.73,2.55,1.0,25.3
2013-09-09 01:36:00,0.0,1.90291,0.00046,383.915,0.027,0.8025,0.0020,140.007,45.000,31653.30610,1.91838,387.718,32.250,45.055,45.000,0.00,0.12,-272.57,-272.64,-18,569,-2,19.6,26.7,-0.1,19.6,27.9,0.6,5.73,2.57,1.0,25.3
2013-09-09 01:37:00,0.0,1.90251,0.00077,383.888,0.010,0.8048,0.0017,140.009,45.000,31655.97073,1.91792,387.700,32.248,45.055,45.000,0.00,0.12,-272.57,-272.63,-17,569,-2,19.6,26.8,0.0,19.6,28.0,0.6,5.73,2.57,1.0,25.3
2013-09-09 01:38:00,0.0,1.90288,0.00023,383.888,0.040,0.8081,0.0020,140.004,45.000,31656.48201,1.91845,387.720,32.250,45.056,45.000,0.00,0.12,-272.57,-272.64,-17,569,-2,19.6,26.9,0.1,19.6,28.1,0.7,5.73,2.56,1.0,25.3
2013-09-09 01:39:00,0.0,1.90293,0.00097,383.841,0.023,0.8099,0.0022,140.004,45.000,31655.81236,1.91827,387.674,32.250,45.055,45.000,0.00,0.12,-272.57,-272.63,-17,569,-2,19.6,27.0,0.1,19.6,28.2,0.7,5.73,2.55,1.0,25.3
2013-09-09 01:40:00,0.0,1.90194,0.00133,383.775,0.031,0.8200,0.0037,140.000,45.000,31654.96056,1.91809,387.663,32.250,45.055,45.000,0.00,0.12,-272.57,-272.63,-17,569,-2,19.7,27.3,0.3,19.6,28.5,0.9,5.73,2.53,1.0,25.3
2013-09-09 01:41:00,0.0,1.90076,0.00036,383.849,0.048,0.8014,0.0077,140.000,45.000,31652.66653,1.91618,387.644,32.250,45.055,45.000,0.00,0.12,-272.57,-272.64,-17,569,-2,19.6,26.7,-0.1,19.6,27.9,0.6,5.73,2.51,1.0,25.3
2013-09-09 01:42:00,0.0,1.90108,0.00047,383.909,0.036,0.7929,0.0017,140.004,45.000,31650.99192,1.91626,387.660,32.251,45.055,45.000,0.00,0.12,-272.57,-272.64,-17,569,-2,19.6,26.4,-0.2,19.6,27.6,0.4,5.73,2.52,1.0,25.3
2013-09-09 01:43:00,0.0,1.90048,0.00063,383.895,0.026,0.7889,0.0022,140.001,45.000,31652.33666,1.91573,387.636,32.250,45.055,45.000,0.00,0.12,-272.57,-272.64,-18,569,-2,19.6,26.2,-0.3,19.6,27.4,0.3,5.73,2.53,1.0,25.3
2013-09-09 01:44:00,0.0,1.90076,0.00051,383.915,0.020,0.7833,0.0034,139.999,45.000,31651.09522,1.91581,387.624,32.250,45.055,45.000,0.00,0.12,-272.57,-272.63,-18,569,-2,19.6,26.0,-0.4,19.6,27.2,0.2,5.73,2.55,1.0,25.4
2013-09-09 01:45:00,0.0,1.90033,0.00033,383.974,0.031,0.7733,0.0041,139.999,45.000,31649.89189,1.91511,387.634,32.250,45.056,45.000,0.00,0.12,-272.57,-272.64,-18,569,-2,19.6,25.7,-0.6,19.6,26.9,0.1,5.73,2.57,1.0,25.3
2013-09-09 01:46:00,0.0,1.90040,0.00038,383.946,0.041,0.7781,0.0042,140.001,45.000,31650.48709,1.91537,387.625,32.250,45.056,45.000,0.00,0.12,-272.58,-272.64,-18,569,-2,19.6,25.8,-0.5,19.6,26.9,0.1,5.73,2.58,1.0,25.4
2013-09-09 01:47:00,0.0,1.90051,0.00042,383.965,0.023,0.7799,0.0026,140.003,45.000,31652.21855,1.91534,387.655,32.250,45.056,45.000,0.00,0.12,-272.57,-272.64,-18,569,-2,19.6,25.9,-0.5,19.6,27.0,0.1,5.73,2.57,1.0,25.4